Location: Antichan
(42.9728°N, 0.6667°E)
Time: 14:28:05
(UTC+00:00)

IGS 5A - Pass Details

Date: 15 August 2020
Orbit: 583 x 588 km, 97.6° (Epoch: 21 September)

Event Time Altitude Azimuth Distance (km) Brightness Sun altitude
Exits shadow 20:29:50 27° 114° (ESE) 1,132 4.3 -15.5°
Maximum altitude 20:31:19 37° 71° (ENE) 926 4.2 -15.7°
Drops below altitude 10° 20:35:10 10° 4° (N) 1,924 6.5 -16.3°
Sets 20:37:26 0° 356° (N) 2,829 7.6 -16.6°
